TimeAKDT,TemperatureF,Dew PointF,Humidity,Sea Level PressureIn,VisibilityMPH,Wind Direction,Wind SpeedMPH,Gust SpeedMPH,PrecipitationIn,Events,Conditions,WindDirDegrees,DateUTC
12:16 AM,26.6,23.0,86,29.68,10.0,NE,3.5,-,N/A,,Overcast,40,2013-10-11 08:16:00
12:36 AM,26.6,23.0,86,29.68,10.0,NE,4.6,-,N/A,,Overcast,40,2013-10-11 08:36:00
12:56 AM,26.6,23.0,86,29.68,10.0,Calm,Calm,-,N/A,,Overcast,0,2013-10-11 08:56:00
1:16 AM,26.6,24.8,93,29.69,10.0,NE,3.5,-,N/A,,Overcast,40,2013-10-11 09:16:00
1:36 AM,26.6,23.0,86,29.69,10.0,NE,3.5,-,N/A,,Overcast,40,2013-10-11 09:36:00
1:56 AM,26.6,24.8,93,29.69,10.0,Calm,Calm,-,N/A,,Overcast,0,2013-10-11 09:56:00
2:16 AM,28.4,24.8,86,29.69,10.0,NNE,3.5,-,N/A,,Overcast,20,2013-10-11 10:16:00
2:36 AM,28.4,24.8,86,29.69,10.0,NE,4.6,-,N/A,,Overcast,40,2013-10-11 10:36:00
2:56 AM,28.4,24.8,86,29.69,10.0,NE,4.6,-,N/A,,Overcast,50,2013-10-11 10:56:00
3:16 AM,26.6,24.8,93,29.70,10.0,Calm,Calm,-,N/A,,Overcast,0,2013-10-11 11:16:00
3:36 AM,28.4,24.8,86,29.70,10.0,Calm,Calm,-,N/A,,Overcast,0,2013-10-11 11:36:00
3:56 AM,28.4,24.8,86,29.70,10.0,Calm,Calm,-,N/A,,Mostly Cloudy,0,2013-10-11 11:56:00
4:16 AM,26.6,24.8,93,29.70,10.0,Calm,Calm,-,N/A,,Scattered Clouds,0,2013-10-11 12:16:00
4:36 AM,26.6,24.8,93,29.70,10.0,NE,3.5,-,N/A,,Partly Cloudy,50,2013-10-11 12:36:00
4:56 AM,26.6,24.8,93,29.71,10.0,Calm,Calm,-,N/A,,Clear,0,2013-10-11 12:56:00
5:16 AM,26.6,24.8,93,29.71,10.0,ENE,3.5,-,N/A,,Clear,60,2013-10-11 13:16:00
5:36 AM,26.6,23.0,86,29.71,10.0,Calm,Calm,-,N/A,,Partly Cloudy,0,2013-10-11 13:36:00
5:56 AM,26.6,24.8,93,29.72,10.0,ENE,3.5,-,N/A,,Clear,60,2013-10-11 13:56:00
6:16 AM,26.6,24.8,93,29.72,10.0,NE,4.6,-,N/A,,Clear,40,2013-10-11 14:16:00
6:36 AM,24.8,21.2,86,29.72,10.0,NE,5.8,-,N/A,,Clear,40,2013-10-11 14:36:00
6:56 AM,24.8,21.2,86,29.72,10.0,NE,5.8,-,N/A,,Clear,40,2013-10-11 14:56:00
7:16 AM,24.8,24.8,100,29.72,10.0,NNE,5.8,-,N/A,,Scattered Clouds,20,2013-10-11 15:16:00
7:36 AM,24.8,23.0,93,29.73,10.0,NNE,6.9,-,N/A,,Scattered Clouds,30,2013-10-11 15:36:00
7:56 AM,24.8,24.8,100,29.73,7.0,NNE,4.6,-,N/A,,Overcast,20,2013-10-11 15:56:00
8:16 AM,24.8,23.0,93,29.74,5.0,NNE,4.6,-,N/A,,Scattered Clouds,30,2013-10-11 16:16:00
8:36 AM,23.0,21.2,93,29.74,1.0,NNE,5.8,-,N/A,,Clear,30,2013-10-11 16:36:00
8:56 AM,23.0,21.2,93,29.74,0.2,Calm,Calm,-,N/A,,Overcast,0,2013-10-11 16:56:00
9:16 AM,24.8,24.8,100,29.75,10.0,NW,3.5,-,N/A,,Partly Cloudy,320,2013-10-11 17:16:00
9:36 AM,26.6,24.8,93,29.75,10.0,NNE,3.5,-,N/A,,Clear,30,2013-10-11 17:36:00
9:56 AM,24.8,24.8,100,29.76,10.0,NNE,3.5,-,N/A,,Clear,20,2013-10-11 17:56:00
10:16 AM,26.6,24.8,93,29.76,10.0,Calm,Calm,-,N/A,,Clear,0,2013-10-11 18:16:00
10:36 AM,26.6,24.8,93,29.76,10.0,Calm,Calm,-,N/A,,Clear,0,2013-10-11 18:36:00
10:56 AM,26.6,24.8,93,29.78,10.0,Calm,Calm,-,N/A,,Clear,0,2013-10-11 18:56:00
11:16 AM,26.6,24.8,93,29.78,10.0,Calm,Calm,-,N/A,,Clear,0,2013-10-11 19:16:00
11:36 AM,26.6,24.8,93,29.78,10.0,Calm,Calm,-,N/A,,Clear,0,2013-10-11 19:36:00
11:56 AM,26.6,24.8,93,29.79,10.0,NE,3.5,-,N/A,,Clear,40,2013-10-11 19:56:00
12:16 PM,28.4,26.6,93,29.80,10.0,North,3.5,-,N/A,,Clear,360,2013-10-11 20:16:00
12:36 PM,30.2,26.6,86,29.80,10.0,Calm,Calm,-,N/A,,Clear,0,2013-10-11 20:36:00
12:56 PM,32.0,26.6,80,29.80,10.0,SE,4.6,-,N/A,,Clear,130,2013-10-11 20:56:00
1:16 PM,33.8,26.6,75,29.81,10.0,Calm,Calm,-,N/A,,Clear,0,2013-10-11 21:16:00
1:36 PM,33.8,26.6,75,29.81,10.0,Calm,Calm,-,N/A,,Clear,0,2013-10-11 21:36:00
1:56 PM,37.4,26.6,65,29.81,10.0,Calm,Calm,-,N/A,,Clear,0,2013-10-11 21:56:00
2:16 PM,37.4,26.6,65,29.81,10.0,Calm,Calm,-,N/A,,Clear,0,2013-10-11 22:16:00
2:36 PM,39.2,26.6,61,29.81,10.0,Calm,Calm,-,N/A,,Clear,0,2013-10-11 22:36:00
2:56 PM,37.4,24.8,60,29.81,10.0,SE,3.5,-,N/A,,Clear,130,2013-10-11 22:56:00
3:16 PM,37.4,26.6,65,29.81,10.0,SE,3.5,-,N/A,,Clear,140,2013-10-11 23:16:00
3:36 PM,37.4,26.6,65,29.81,10.0,SE,3.5,-,N/A,,Clear,140,2013-10-11 23:36:00
3:56 PM,37.4,26.6,65,29.81,10.0,South,3.5,-,N/A,,Clear,170,2013-10-11 23:56:00
4:16 PM,37.4,26.6,65,29.81,10.0,Calm,Calm,-,N/A,,Clear,0,2013-10-12 00:16:00
4:36 PM,37.4,24.8,60,29.81,10.0,Calm,Calm,-,N/A,,Clear,0,2013-10-12 00:36:00
4:56 PM,37.4,24.8,60,29.81,10.0,Calm,Calm,-,N/A,,Clear,0,2013-10-12 00:56:00
5:16 PM,37.4,26.6,65,29.81,10.0,Calm,Calm,-,N/A,,Clear,0,2013-10-12 01:16:00
5:36 PM,37.4,24.8,60,29.81,10.0,Calm,Calm,-,N/A,,Clear,0,2013-10-12 01:36:00
5:56 PM,35.6,24.8,65,29.81,10.0,Calm,Calm,-,N/A,,Clear,0,2013-10-12 01:56:00
6:16 PM,35.6,24.8,65,29.82,10.0,Calm,Calm,-,N/A,,Clear,0,2013-10-12 02:16:00
6:36 PM,33.8,24.8,70,29.82,10.0,Calm,Calm,-,N/A,,Clear,0,2013-10-12 02:36:00
6:56 PM,33.8,24.8,70,29.81,10.0,Calm,Calm,-,N/A,,Clear,0,2013-10-12 02:56:00
7:16 PM,33.8,24.8,70,29.81,10.0,WSW,3.5,-,N/A,,Clear,240,2013-10-12 03:16:00
7:36 PM,33.8,24.8,70,29.82,10.0,WSW,4.6,-,N/A,,Clear,250,2013-10-12 03:36:00
7:56 PM,33.8,24.8,70,29.82,10.0,West,4.6,-,N/A,,Clear,260,2013-10-12 03:56:00
8:16 PM,32.0,23.0,69,29.82,10.0,West,5.8,-,N/A,,Clear,260,2013-10-12 04:16:00
8:36 PM,32.0,24.8,75,29.83,10.0,West,3.5,-,N/A,,Clear,270,2013-10-12 04:36:00
8:56 PM,32.0,24.8,75,29.82,10.0,West,3.5,-,N/A,,Clear,270,2013-10-12 04:56:00
9:16 PM,33.8,23.0,65,29.82,10.0,Calm,Calm,-,N/A,,Clear,0,2013-10-12 05:16:00
9:36 PM,32.0,24.8,75,29.83,10.0,Calm,Calm,-,N/A,,Clear,0,2013-10-12 05:36:00
9:56 PM,30.2,24.8,80,29.83,10.0,NNW,5.8,-,N/A,,Clear,340,2013-10-12 05:56:00
10:16 PM,32.0,24.8,75,29.83,10.0,North,3.5,-,N/A,,Clear,350,2013-10-12 06:16:00
10:36 PM,32.0,24.8,75,29.84,10.0,NNE,3.5,-,N/A,,Partly Cloudy,20,2013-10-12 06:36:00
10:56 PM,30.2,26.6,86,29.83,10.0,North,4.6,-,N/A,,Mostly Cloudy,360,2013-10-12 06:56:00
11:16 PM,32.0,24.8,75,29.84,10.0,NNE,3.5,-,N/A,,Overcast,30,2013-10-12 07:16:00
11:36 PM,33.8,24.8,70,29.83,10.0,NE,3.5,-,N/A,,Mostly Cloudy,40,2013-10-12 07:36:00
11:56 PM,33.8,24.8,70,29.83,10.0,NE,4.6,-,N/A,,Mostly Cloudy,40,2013-10-12 07:56:00